[[{"header":{"parameterUnit":"m.s-1","parameterCategory":1,"la1":30.2991,"la2":30.254,"lo1":-89.0895,"lo2":-89.0444,"dy":0.0017,"dx":0.0017,"nx":28,"ny":28,"refTime":"2024-10-12T09:00:00:Z","depth":0,"parameterNumber":2,"parameterNumberName":"U-component_of_WINDS"},"data":[0,0,0,0,0,0,0,0,0,0,0,0,0,0,0,0,0,0,0,0,0,0,0,0,0,0,0,0,0,0,0,0,0,0,0,0,0,0,0,0,0,0,0,0,0,0,0,0,0,0,0,0,0,0,0,0,0,0,0.8987,0.8988,0,0.9042,0.9042,0.9043,0.9083,0.9084,0.9084,0.9084,0.9137,0.9138,0.9139,0,0,0,0,0,0,0,0,0,0,0,0,0,0.8913,0.8914,0.8987,0.8988,0.8988,0.9042,0.9042,0.9043,0.9083,0.9084,0.9084,0.9085,0.9137,0.9138,0.9139,0,0,0,0,0,0,0,0,0,0,0,0,0,0.8954,0.8914,0.8987,0.9015,0.9018,0.9042,0.9042,0.9043,0.9083,0.9084,0.9084,0.9085,0.9136,0.9138,0.9139,0.9139,0,0,0.9144,0.9145,0,0,0,0,0,0,0,0,0.8952,0.8957,0.901,0.9013,0.9017,0.9056,0.9036,0.9075,0.9083,0.9058,0.9084,0.9085,0.911,0.9113,0.9122,0.9141,0.9143,0.9144,0.9145,0.9146,0.9147,0,0,0,0,0,0,0,0.8949,0.8955,0.9009,0.9011,0.9015,0.9023,0.903,0.9043,0.908,0.906,0.9064,0.907,0.9111,0.9121,0.9124,0.9144,0.9144,0.9146,0.9147,0.9147,0.9162,0.9162,0,0,0,0,0,0,0.8942,0.8952,0.9007,0.901,0.8985,0.9024,0.9031,0.9043,0.908,0.9086,0.9069,0.9071,0.9118,0.9122,0.9126,0.9126,0.9146,0.9148,0.9149,0.9163,0.9162,0.9162,0,0,0,0,0,0,0.894,0.8947,0.9005,0.8982,0.899,0.9025,0.9038,0.9044,0.9053,0.9087,0.9093,0.9072,0.9118,0.9124,0.9135,0.9128,0.9148,0.915,0.9164,0.9163,0.9162,0.9127,0,0,0,0,0,0,0.8938,0.8946,0.8947,0.8982,0.8991,0.9014,0.9037,0.9044,0.9056,0.906,0.9091,0.9097,0.9119,0.9132,0.9136,0.9131,0.9151,0.9164,0.9163,0.9162,0.9128,0.9125,0.9121,0,0,0,0,0,0.8935,0.8935,0.8947,0.8953,0.8994,0.9014,0.9019,0.9045,0.9056,0.9056,0.9077,0.9096,0.9128,0.9133,0.9138,0.9133,0.9165,0.9163,0.9162,0.913,0.9125,0.9121,0,0,0,0,0,0,0.8898,0.894,0.8954,0.8965,0.8985,0.902,0.9022,0.904,0.9057,0.9059,0.909,0.9097,0.9104,0.912,0.9124,0.9133,0.9149,0.9148,0.9123,0.9118,0.9115,0.911,0.9152,0,0,0,0,0,0.8891,0.8905,0.894,0.8946,0.8956,0.8987,0.8997,0.9015,0.9038,0.9046,0.9068,0.9088,0.9102,0.9111,0.9127,0.9131,0.9137,0.913,0.9126,0.9123,0.9122,0.9123,0.912,0.9157,0.9157,0.9157,0,0,0.8876,0.8901,0.8908,0.8939,0.8958,0.897,0.8994,0.9007,0.9015,0.9048,0.906,0.9076,0.91,0.9107,0.9111,0.912,0.9113,0.9121,0.9119,0.9119,0.9121,0.9118,0.9115,0.9156,0.9157,0.9157,0,0,0.8856,0.8877,0.8884,0.8901,0.8928,0.8949,0.895,0.8982,0.8995,0.9007,0.9031,0.9041,0.9066,0.9082,0.9093,0.9076,0.9093,0.908,0.9061,0.9062,0.9059,0.9057,0.9049,0.9046,0.908,0.9079,0.9079,0,0.8835,0.8855,0.8885,0.8895,0.8907,0.8938,0.8943,0.8958,0.8989,0.8996,0.9005,0.9036,0.9054,0.9064,0.906,0.9069,0.907,0.9077,0.9058,0.9055,0.9053,0.9046,0.9044,0.9078,0.9078,0.9078,0.9078,0,0.8827,0.884,0.8842,0.8871,0.8883,0.8891,0.892,0.8929,0.8945,0.8964,0.8975,0.8998,0.9018,0.9021,0.9038,0.9033,0.9038,0.9052,0.9069,0.9047,0.9041,0.9039,0.9075,0.9076,0.9076,0.9077,0,0,0.8785,0.8829,0.8829,0.8842,0.8873,0.8883,0.8892,0.8912,0.8917,0.8937,0.8943,0.8963,0.8976,0.8988,0.9007,0.9007,0.899,0.9022,0.9022,0.9014,0.8984,0.8972,0.8969,0.9002,0.9002,0.9002,0.8982,0,0.8769,0.8787,0.8812,0.8821,0.8832,0.8861,0.8867,0.8886,0.8904,0.8915,0.8933,0.8946,0.8963,0.8971,0.8973,0.8992,0.8985,0.8994,0.9007,0.9007,0.8999,0.8966,0.8954,0.8934,0.898,0.8979,0.8979,0,0.8753,0.8771,0.878,0.8809,0.8815,0.8821,0.884,0.8851,0.8872,0.8884,0.8897,0.8917,0.8925,0.8941,0.8951,0.8957,0.8963,0.8973,0.8973,0.8974,0.8991,0.8965,0.8929,0.8925,0.8976,0.8976,0.8976,0,0.872,0.8746,0.8755,0.8765,0.8799,0.8802,0.8816,0.8838,0.8848,0.8864,0.887,0.8886,0.8895,0.8907,0.893,0.8939,0.8937,0.8955,0.8946,0.8945,0.8943,0.8943,0.8906,0.895,0.895,0.895,0.895,0,0.8698,0.8703,0.874,0.8745,0.875,0.8779,0.8782,0.8799,0.8818,0.8825,0.885,0.8857,0.8887,0.8896,0.8914,0.8919,0.8923,0.8932,0.8936,0.8929,0.8928,0.8933,0.8934,0.8949,0.8949,0.8949,0.8949,0,0.8662,0.8688,0.8699,0.873,0.8737,0.8739,0.8765,0.877,0.8789,0.8798,0.8801,0.8829,0.8842,0.8866,0.8884,0.8896,0.8896,0.8905,0.8889,0.8892,0.8881,0.8881,0.8845,0.8841,0.8888,0.8888,0.8887,0,0.8646,0.865,0.8681,0.8689,0.8702,0.8713,0.8723,0.875,0.8759,0.8782,0.8784,0.8798,0.8811,0.8828,0.8849,0.8863,0.8871,0.8858,0.8874,0.8865,0.8869,0.8868,0.8868,0.8854,0.8853,0.8853,0.8852,0,0.8615,0.8627,0.8641,0.8658,0.8669,0.8683,0.8699,0.8703,0.8734,0.8742,0.8755,0.8765,0.8783,0.8796,0.8813,0.8826,0.8843,0.8847,0.8846,0.8838,0.8827,0.8831,0.8878,0.8848,0.8848,0.8849,0.8849,0.8849,0.8588,0.8592,0.8614,0.8627,0.8642,0.8656,0.8661,0.868,0.8692,0.8709,0.8724,0.8735,0.8754,0.8778,0.879,0.8798,0.8806,0.8804,0.8804,0.8802,0.8798,0.8827,0.8801,0.8801,0.8801,0.8801,0.8801,0,0.8556,0.8571,0.8584,0.8605,0.8615,0.8631,0.8649,0.8656,0.8666,0.8682,0.8694,0.8707,0.8719,0.8741,0.8755,0.8756,0.8764,0.8759,0.8758,0.876,0.8791,0.879,0.8752,0.8752,0.8752,0.8752,0.8752,0.8752,0.8541,0.8548,0.8562,0.8576,0.8591,0.8602,0.861,0.8622,0.8636,0.865,0.866,0.8674,0.8692,0.8707,0.8718,0.8724,0.8727,0.8718,0.8726,0.8754,0.8759,0.8763,0.8762,0.8719,0.8719,0.8695,0.8695,0.8695]},{"header":{"parameterUnit":"m.s-1","parameterCategory":1,"la1":30.2991,"la2":30.254,"lo1":-89.0895,"lo2":-89.0444,"dy":0.0017,"dx":0.0017,"nx":28,"ny":28,"refTime":"2024-10-12T09:00:00:Z","depth":0,"parameterNumber":3,"parameterNumberName":"V-component_of_WINDS"},"data":[0,0,0,0,0,0,0,0,0,0,0,0,0,0,0,0,0,0,0,0,0,0,0,0,0,0,0,0,0,0,0,0,0,0,0,0,0,0,0,0,0,0,0,0,0,0,0,0,0,0,0,0,0,0,0,0,0,0,0.9573,0.9572,0,0.9512,0.9511,0.951,0.9458,0.9457,0.9457,0.9456,0.9393,0.9392,0.9391,0,0,0,0,0,0,0,0,0,0,0,0,0,0.9641,0.964,0.9573,0.9572,0.9571,0.9512,0.9511,0.951,0.9458,0.9457,0.9457,0.9456,0.9394,0.9392,0.9391,0,0,0,0,0,0,0,0,0,0,0,0,0,0.9599,0.964,0.9573,0.9538,0.9534,0.9512,0.9511,0.951,0.9458,0.9457,0.9456,0.9456,0.9394,0.9392,0.9391,0.9398,0,0,0.9386,0.9385,0,0,0,0,0,0,0,0,0.9602,0.9597,0.9544,0.954,0.9536,0.9492,0.9512,0.9473,0.9458,0.9487,0.9456,0.9455,0.9427,0.9422,0.9413,0.9395,0.9392,0.9385,0.9384,0.9384,0.9383,0,0,0,0,0,0,0,0.9605,0.9599,0.9549,0.9543,0.9538,0.9525,0.9518,0.9504,0.9463,0.9484,0.9481,0.9474,0.9424,0.9414,0.9411,0.9391,0.9385,0.9384,0.9383,0.9382,0.9374,0.9375,0,0,0,0,0,0,0.9613,0.9602,0.9551,0.9547,0.9567,0.9524,0.9516,0.9507,0.9463,0.9455,0.9475,0.9472,0.9418,0.9413,0.9408,0.9412,0.9384,0.9382,0.9381,0.9373,0.9374,0.9375,0,0,0,0,0,0,0.9615,0.9609,0.9553,0.9573,0.9565,0.9524,0.9514,0.9506,0.9496,0.9455,0.9447,0.9473,0.9417,0.9411,0.94,0.941,0.9381,0.938,0.9372,0.9374,0.9375,0.9422,0,0,0,0,0,0,0.9617,0.961,0.9613,0.9574,0.9564,0.9547,0.9514,0.9505,0.9493,0.9489,0.9451,0.9444,0.9416,0.9403,0.9399,0.9407,0.9378,0.9371,0.9373,0.9374,0.9419,0.9424,0.9429,0,0,0,0,0,0.962,0.9629,0.9614,0.9608,0.9567,0.9548,0.9542,0.951,0.9495,0.9497,0.947,0.9445,0.9409,0.9403,0.9397,0.9405,0.9371,0.9372,0.9374,0.9417,0.9423,0.9429,0,0,0,0,0,0,0.9671,0.9623,0.9606,0.9603,0.958,0.9539,0.9541,0.9518,0.9498,0.9495,0.9455,0.9447,0.9441,0.9422,0.9415,0.9408,0.9386,0.9387,0.9421,0.9427,0.9431,0.9436,0.9377,0,0,0,0,0,0.9682,0.9671,0.9629,0.9631,0.962,0.9583,0.9573,0.955,0.9524,0.9514,0.9487,0.9462,0.9445,0.9435,0.9417,0.9416,0.9406,0.9418,0.9423,0.9427,0.9428,0.9424,0.9429,0.9381,0.9381,0.9381,0,0,0.9705,0.9677,0.9673,0.964,0.962,0.9608,0.9575,0.9564,0.9555,0.9512,0.95,0.9479,0.9449,0.9443,0.9439,0.9427,0.9439,0.943,0.9433,0.9432,0.9427,0.9431,0.9435,0.9382,0.9382,0.9382,0,0,0.974,0.9718,0.9716,0.9696,0.9665,0.9639,0.9639,0.9601,0.9585,0.9573,0.954,0.9528,0.95,0.9479,0.9465,0.949,0.9466,0.9485,0.9511,0.9507,0.9511,0.9514,0.9521,0.9525,0.9486,0.9487,0.9487,0,0.9772,0.9753,0.9718,0.9709,0.9695,0.9656,0.9652,0.9634,0.9599,0.959,0.9577,0.9539,0.9517,0.9504,0.951,0.95,0.9497,0.949,0.9513,0.9516,0.9518,0.9525,0.9528,0.9489,0.9489,0.9489,0.9488,0,0.9793,0.9781,0.9783,0.9749,0.9735,0.9729,0.9692,0.9682,0.966,0.9635,0.9622,0.9593,0.9568,0.9563,0.9541,0.9547,0.954,0.9521,0.9498,0.9526,0.9531,0.9534,0.9493,0.9492,0.9491,0.949,0,0,0.986,0.9806,0.9807,0.979,0.9752,0.9742,0.9733,0.9708,0.9699,0.9676,0.9667,0.9643,0.9624,0.9608,0.9583,0.958,0.96,0.9561,0.9559,0.9568,0.9602,0.9616,0.962,0.9583,0.9584,0.9584,0.9604,0,0.9888,0.9871,0.9838,0.9831,0.9818,0.9779,0.9771,0.9746,0.9723,0.9707,0.9681,0.9664,0.9641,0.9631,0.9626,0.9598,0.9606,0.9597,0.9573,0.9573,0.9581,0.9623,0.9638,0.9659,0.9606,0.9606,0.9606,0,0.9919,0.9897,0.9889,0.9849,0.9843,0.9836,0.981,0.9796,0.9766,0.9749,0.973,0.9702,0.969,0.9669,0.965,0.9644,0.9633,0.9617,0.9617,0.9613,0.9591,0.9619,0.9664,0.9667,0.961,0.961,0.9609,0,0.9967,0.9936,0.9926,0.9913,0.9867,0.9863,0.9844,0.9813,0.98,0.9776,0.9767,0.9742,0.9728,0.9709,0.9675,0.9664,0.9659,0.9636,0.9643,0.9644,0.9644,0.9645,0.9687,0.9638,0.9638,0.9638,0.9638,0,1.0002,0.9998,0.9946,0.9941,0.9934,0.9896,0.989,0.9867,0.984,0.9827,0.9792,0.9782,0.9737,0.9721,0.9694,0.9681,0.9676,0.9661,0.9653,0.9663,0.9665,0.9655,0.9652,0.9639,0.9639,0.9638,0.9638,0,1.0055,1.002,1.0007,0.9964,0.9953,0.995,0.9913,0.9905,0.9879,0.9864,0.9858,0.9816,0.9795,0.9759,0.9727,0.9709,0.9701,0.9689,0.9711,0.9707,0.9716,0.9715,0.9753,0.9755,0.9705,0.9706,0.9706,0,1.0079,1.0074,1.0031,1.002,1.0002,0.9986,0.9971,0.9932,0.9919,0.9883,0.9879,0.9855,0.9833,0.9801,0.9767,0.9742,0.9729,0.9744,0.9725,0.9734,0.9728,0.9728,0.9727,0.9748,0.9749,0.975,0.975,0,1.0124,1.0107,1.0088,1.0062,1.0046,1.0024,1.0,0.9993,0.9949,0.9935,0.9913,0.9896,0.9863,0.9838,0.9808,0.9787,0.9761,0.9756,0.9756,0.9766,0.9778,0.977,0.9722,0.9755,0.9755,0.9755,0.9754,0.9754,1.0163,1.0156,1.0124,1.0103,1.0081,1.0059,1.0049,1.0021,1.0002,0.9972,0.995,0.9928,0.9896,0.9853,0.9833,0.9815,0.9803,0.9804,0.9804,0.9804,0.9807,0.9782,0.9809,0.9809,0.9809,0.9809,0.9809,0,1.0206,1.0183,1.0164,1.0131,1.0114,1.0091,1.0063,1.005,1.0032,1.0004,0.9983,0.9956,0.9932,0.9896,0.9869,0.9861,0.9848,0.9855,0.9855,0.985,0.982,0.9822,0.9866,0.9866,0.9866,0.9866,0.9866,0.9866,1.0226,1.0213,1.0192,1.0167,1.0144,1.0123,1.0109,1.0087,1.0065,1.0037,1.0016,0.9993,0.9961,0.9931,0.9907,0.9897,0.9888,0.9899,0.9885,0.9858,0.9852,0.9847,0.9849,0.9897,0.9897,0.9916,0.9916,0.9916]}]]